Location: The C. Gantt Observatory
(33.6981°N, 81.6836°W)
Time: 21:32:12
(UTC-04:00)

Iridium 30 - Visible Passes

Search period start: 03 September 2015 00:00
Search period end: 13 September 2015 00:00
Orbit: 776 x 779 km, 86.4° (Epoch: 02 September)

Date Brightness Start Highest point End Pass type
(mag) Time Alt. Az. Time Alt. Az. Time Alt. Az.
03 Sep 7.8 04:17:17 10° NNW 04:18:09 15° NNW 04:18:09 15° NNW visible
04 Sep 8.0 03:43:29 10° N 03:44:22 15° N 03:44:22 15° N visible
05 Sep 8.3 03:10:05 10° N 03:10:35 13° N 03:10:35 13° N visible
